| time (UTC) | temp F | wind direction | speed MPH | gust MPH | rain 1hr in | rain 24hr in | rain mn in | humidity % | barometer mb |
| 20260906203516 | 93 | 144 | 8.0 | 17.0 | 0.00 | 0.00 | 0.00 | 42 | 1014.8 |
| 20260906202516 | 93 | 155 | 8.0 | 19.0 | 0.00 | 0.00 | 0.00 | 42 | 1015.0 |
| 20260906201516 | 93 | 137 | 9.0 | 19.0 | 0.00 | 0.00 | 0.00 | 43 | 1014.9 |
| 20260906200516 | 92 | 159 | 8.0 | 17.0 | 0.00 | 0.00 | 0.00 | 43 | 1015.2 |
| 20260906195536 | 92 | 170 | 9.0 | 20.0 | 0.00 | 0.00 | 0.00 | 43 | 1015.2 |
| 20260906194516 | 91 | 133 | 10.0 | 18.0 | 0.00 | 0.00 | 0.00 | 45 | 1015.1 |
| 20260906193537 | 91 | 140 | 8.0 | 20.0 | 0.00 | 0.00 | 0.00 | 45 | 1015.2 |
| 20260906192516 | 90 | 126 | 10.0 | 21.0 | 0.00 | 0.00 | 0.00 | 45 | 1015.0 |
| 20260906191516 | 91 | 139 | 7.0 | 19.0 | 0.00 | 0.00 | 0.00 | 46 | 1015.1 |
| 20260906190516 | 91 | 140 | 6.0 | 17.0 | 0.00 | 0.00 | 0.00 | 45 | 1015.2 |
| 20260906185516 | 91 | 160 | 7.0 | 17.0 | 0.00 | 0.00 | 0.00 | 46 | 1015.2 |
| 20260906184516 | 90 | 145 | 6.0 | 15.0 | 0.00 | 0.00 | 0.00 | 46 | 1015.2 |
| 20260906183536 | 90 | 145 | 9.0 | 17.0 | 0.00 | 0.00 | 0.00 | 46 | 1015.3 |
| 20260906182516 | 89 | 150 | 9.0 | 17.0 | 0.00 | 0.00 | 0.00 | 45 | 1015.5 |
| 20260906181516 | 89 | 137 | 7.0 | 15.0 | 0.00 | 0.00 | 0.00 | 47 | 1015.7 |
| 20260906180516 | 89 | 138 | 7.0 | 14.0 | 0.00 | 0.00 | 0.00 | 48 | 1016.0 |
| 20260906175516 | 88 | 152 | 7.0 | 16.0 | 0.00 | 0.00 | 0.00 | 47 | 1016.0 |
| 20260906174516 | 87 | 143 | 7.0 | 15.0 | 0.00 | 0.00 | 0.00 | 49 | 1016.3 |
| 20260906173516 | 87 | 137 | 8.0 | 17.0 | 0.00 | 0.00 | 0.00 | 50 | 1016.5 |
| 20260906172516 | 86 | 143 | 8.0 | 17.0 | 0.00 | 0.00 | 0.00 | 50 | 1016.4 |
| 20260906171536 | 86 | 147 | 6.0 | 15.0 | 0.00 | 0.00 | 0.00 | 54 | 1016.5 |
| 20260906170516 | 85 | 115 | 9.0 | 19.0 | 0.00 | 0.00 | 0.00 | 55 | 1016.6 |
| 20260906165516 | 85 | 129 | 7.0 | 18.0 | 0.00 | 0.00 | 0.00 | 55 | 1016.6 |
| 20260906164516 | 84 | 112 | 7.0 | 17.0 | 0.00 | 0.00 | 0.00 | 56 | 1016.7 |
| 20260906163516 | 84 | 128 | 6.0 | 14.0 | 0.00 | 0.00 | 0.00 | 57 | 1016.7 |
| 20260906162516 | 84 | 127 | 8.0 | 15.0 | 0.00 | 0.00 | 0.00 | 56 | 1016.7 |
| 20260906161516 | 83 | 137 | 7.0 | 15.0 | 0.00 | 0.00 | 0.00 | 56 | 1016.7 |
| 20260906160516 | 83 | 139 | 7.0 | 16.0 | 0.00 | 0.00 | 0.00 | 57 | 1016.8 |
| 20260906155516 | 83 | 135 | 4.0 | 14.0 | 0.00 | 0.00 | 0.00 | 57 | 1016.8 |
| 20260906154515 | 83 | 125 | 5.0 | 12.0 | 0.00 | 0.00 | 0.00 | 57 | 1016.6 |
| 20260906153515 | 82 | 149 | 5.0 | 13.0 | 0.00 | 0.00 | 0.00 | 57 | 1016.4 |
| 20260906152515 | 82 | 175 | 5.0 | 13.0 | 0.00 | 0.00 | 0.00 | 58 | 1016.6 |
| 20260906151515 | 81 | 139 | 6.0 | 16.0 | 0.00 | 0.00 | 0.00 | 58 | 1016.4 |
| 20260906150516 | 80 | 154 | 5.0 | 12.0 | 0.00 | 0.00 | 0.00 | 62 | 1016.5 |
| 20260906145516 | 78 | 117 | 4.0 | 11.0 | 0.00 | 0.00 | 0.00 | 65 | 1016.2 |
| 20260906144535 | 77 | 95 | 3.0 | 7.0 | 0.00 | 0.00 | 0.00 | 67 | 1016.3 |
| 20260906143515 | 76 | 82 | 2.0 | 6.0 | 0.00 | 0.00 | 0.00 | 69 | 1016.5 |
| 20260906142516 | 75 | 85 | 2.0 | 6.0 | 0.00 | 0.00 | 0.00 | 69 | 1016.6 |
| 20260906141516 | 74 | 78 | 2.0 | 5.0 | 0.00 | 0.00 | 0.00 | 70 | 1016.5 |
| 20260906140515 | 73 | 84 | 1.0 | 6.0 | 0.00 | 0.00 | 0.00 | 72 | 1016.3 |
| 20260906135515 | 72 | 92 | 2.0 | 5.0 | 0.00 | 0.00 | 0.00 | 72 | 1016.3 |
| 20260906134535 | 72 | 65 | 3.0 | 7.0 | 0.00 | 0.00 | 0.00 | 72 | 1016.3 |
| 20260906133515 | 72 | 49 | 0.0 | 4.0 | 0.00 | 0.00 | 0.00 | 72 | 1016.5 |
| 20260906132515 | 72 | 39 | 1.0 | 4.0 | 0.00 | 0.00 | 0.00 | 72 | 1016.4 |
| 20260906131515 | 71 | 40 | 1.0 | 5.0 | 0.00 | 0.00 | 0.00 | 72 | 1016.4 |
| 20260906130515 | 70 | 37 | 1.0 | 5.0 | 0.00 | 0.00 | 0.00 | 73 | 1016.3 |
| 20260906125515 | 70 | 38 | 1.0 | 5.0 | 0.00 | 0.00 | 0.00 | 73 | 1016.1 |
| 20260906124515 | 71 | 37 | 3.0 | 9.0 | 0.00 | 0.00 | 0.00 | 72 | 1016.2 |
| 20260906123555 | 72 | 43 | 6.0 | 11.0 | 0.00 | 0.00 | 0.00 | 70 | 1016.0 |
| 20260906122615 | 72 | 43 | 1.0 | 4.0 | 0.00 | 0.00 | 0.00 | 69 | 1015.9 |
| 20260906121515 | 74 | 46 | 0.0 | 3.0 | 0.00 | 0.00 | 0.00 | 67 | 1015.9 |
| 20260906120515 | 74 | 64 | 1.0 | 4.0 | 0.00 | 0.00 | 0.00 | 67 | 1015.7 |
| 20260906115555 | 74 | 47 | 1.0 | 5.0 | 0.00 | 0.00 | 0.00 | 68 | 1015.6 |
| 20260906114515 | 74 | 51 | 1.0 | 5.0 | 0.00 | 0.00 | 0.00 | 67 | 1015.6 |
| 20260906113515 | 75 | 310 | 0.0 | 2.0 | 0.00 | 0.00 | 0.00 | 66 | 1015.6 |
| 20260906112535 | 76 | 301 | 1.0 | 3.0 | 0.00 | 0.00 | 0.00 | 65 | 1015.6 |
| 20260906111515 | 76 | 309 | 0.0 | 4.0 | 0.00 | 0.00 | 0.00 | 64 | 1015.7 |
| 20260906110515 | 76 | 184 | 1.0 | 6.0 | 0.00 | 0.00 | 0.00 | 63 | 1015.5 |
| 20260906105515 | 77 | 175 | 1.0 | 8.0 | 0.00 | 0.00 | 0.00 | 63 | 1015.8 |
| 20260906104515 | 77 | 173 | 3.0 | 6.0 | 0.00 | 0.00 | 0.00 | 63 | 1015.8 |
| 20260906103515 | 76 | 199 | 2.0 | 5.0 | 0.00 | 0.00 | 0.00 | 63 | 1015.8 |
| 20260906102515 | 76 | 230 | 2.0 | 5.0 | 0.00 | 0.00 | 0.00 | 64 | 1016.1 |
| 20260906101516 | 76 | 0.0 | 0.0 | 0.00 | 0.00 | 0.00 | 64 | 1016.1 | |
| 20260906100515 | 76 | 0.0 | 0.0 | 0.00 | 0.00 | 0.00 | 64 | 1016.1 | |
| 20260906095636 | 76 | 257 | 0.0 | 2.0 | 0.00 | 0.00 | 0.00 | 63 | 1015.9 |
| 20260906094515 | 76 | 277 | 0.0 | 4.0 | 0.00 | 0.00 | 0.00 | 63 | 1015.8 |
| 20260906093514 | 76 | 302 | 2.0 | 5.0 | 0.00 | 0.00 | 0.00 | 63 | 1015.7 |
| 20260906092514 | 76 | 315 | 3.0 | 7.0 | 0.00 | 0.00 | 0.00 | 62 | 1015.6 |
| 20260906091515 | 76 | 271 | 2.0 | 5.0 | 0.00 | 0.00 | 0.00 | 62 | 1015.9 |
| 20260906090515 | 77 | 308 | 1.0 | 4.0 | 0.00 | 0.00 | 0.00 | 62 | 1015.9 |
| 20260906085516 | 77 | 187 | 0.0 | 1.0 | 0.00 | 0.00 | 0.00 | 60 | 1015.8 |
| 20260906084515 | 77 | 220 | 1.0 | 7.0 | 0.00 | 0.00 | 0.00 | 60 | 1016.0 |
| 20260906083516 | 78 | 0.0 | 0.0 | 0.00 | 0.00 | 0.00 | 60 | 1016.2 | |
| 20260906082516 | 77 | 0.0 | 0.0 | 0.00 | 0.00 | 0.00 | 60 | 1016.1 | |
| 20260906081537 | 77 | 0.0 | 0.0 | 0.00 | 0.00 | 0.00 | 60 | 1016.2 | |
| 20260906080535 | 77 | 0.0 | 0.0 | 0.00 | 0.00 | 0.00 | 60 | 1016.3 | |
| 20260906075517 | 78 | 44 | 0.0 | 5.0 | 0.00 | 0.00 | 0.00 | 58 | 1016.7 |
| 20260906074517 | 77 | 352 | 1.0 | 4.0 | 0.00 | 0.00 | 0.00 | 59 | 1016.5 |
| 20260906073516 | 77 | 74 | 0.0 | 3.0 | 0.00 | 0.00 | 0.00 | 60 | 1016.5 |
| 20260906072516 | 77 | 57 | 0.0 | 4.0 | 0.00 | 0.00 | 0.00 | 60 | 1016.8 |
| 20260906071517 | 76 | 28 | 1.0 | 4.0 | 0.00 | 0.00 | 0.00 | 61 | 1016.6 |
| 20260906070516 | 76 | 17 | 1.0 | 5.0 | 0.00 | 0.00 | 0.00 | 61 | 1016.6 |
| 20260906065516 | 76 | 165 | 0.0 | 4.0 | 0.00 | 0.00 | 0.00 | 60 | 1016.5 |
| 20260906064516 | 75 | 172 | 1.0 | 5.0 | 0.00 | 0.00 | 0.00 | 61 | 1016.1 |
| 20260906063517 | 75 | 164 | 2.0 | 6.0 | 0.00 | 0.00 | 0.00 | 61 | 1016.2 |
| 20260906062516 | 75 | 168 | 1.0 | 5.0 | 0.00 | 0.00 | 0.00 | 62 | 1016.2 |
| 20260906061516 | 76 | 0.0 | 0.0 | 0.00 | 0.00 | 0.00 | 61 | 1016.1 | |
| 20260906060536 | 76 | 0.0 | 0.0 | 0.00 | 0.00 | 0.00 | 59 | 1015.9 | |
| 20260906055515 | 76 | 0.0 | 0.0 | 0.00 | 0.00 | 0.00 | 58 | 1015.7 | |
| 20260906054515 | 77 | 132 | 0.0 | 4.0 | 0.00 | 0.00 | 0.00 | 57 | 1015.8 |
| 20260906053515 | 77 | 119 | 1.0 | 5.0 | 0.00 | 0.00 | 0.00 | 57 | 1015.8 |
| 20260906052515 | 77 | 109 | 2.0 | 7.0 | 0.00 | 0.00 | 0.00 | 56 | 1015.5 |
| 20260906051515 | 77 | 116 | 2.0 | 6.0 | 0.00 | 0.00 | 0.00 | 57 | 1015.5 |
| 20260906050515 | 77 | 50 | 1.0 | 5.0 | 0.00 | 0.00 | 0.00 | 57 | 1015.1 |
| 20260906045515 | 78 | 80 | 2.0 | 4.0 | 0.00 | 0.00 | 0.00 | 57 | 1015.3 |
| 20260906044515 | 78 | 0.0 | 0.0 | 0.00 | 0.00 | 0.00 | 56 | 1015.4 | |
| 20260906043535 | 78 | 0.0 | 2.0 | 0.00 | 0.00 | 0.00 | 56 | 1015.1 | |
| 20260906042515 | 79 | 171 | 1.0 | 5.0 | 0.00 | 0.00 | 0.00 | 56 | 1015.1 |
| 20260906041515 | 79 | 138 | 1.0 | 7.0 | 0.00 | 0.00 | 0.00 | 56 | 1014.8 |
| 20260906040515 | 80 | 159 | 2.0 | 9.0 | 0.00 | 0.00 | 0.00 | 56 | 1015.0 |
| 20260906035536 | 79 | 170 | 2.0 | 7.0 | 0.00 | 0.00 | 0.00 | 57 | 1015.1 |
| 20260906034535 | 79 | 92 | 0.0 | 3.0 | 0.00 | 0.00 | 0.00 | 58 | 1015.1 |
| 20260906033535 | 79 | 0.0 | 2.0 | 0.00 | 0.00 | 0.00 | 57 | 1014.9 | |
| 20260906032515 | 80 | 191 | 1.0 | 6.0 | 0.00 | 0.00 | 0.00 | 56 | 1014.9 |
| 20260906031514 | 80 | 177 | 2.0 | 7.0 | 0.00 | 0.00 | 0.00 | 55 | 1014.8 |
| 20260906030514 | 80 | 177 | 3.0 | 9.0 | 0.00 | 0.00 | 0.00 | 54 | 1014.6 |
| 20260906025515 | 81 | 134 | 2.0 | 8.0 | 0.00 | 0.00 | 0.00 | 53 | 1014.2 |
| 20260906024515 | 82 | 172 | 3.0 | 10.0 | 0.00 | 0.00 | 0.00 | 52 | 1013.9 |
| 20260906023515 | 82 | 144 | 3.0 | 12.0 | 0.00 | 0.00 | 0.00 | 50 | 1013.4 |
| 20260906022515 | 83 | 145 | 4.0 | 11.0 | 0.00 | 0.00 | 0.00 | 50 | 1013.2 |
| 20260906021515 | 84 | 135 | 6.0 | 12.0 | 0.00 | 0.00 | 0.00 | 49 | 1013.1 |
| 20260906020515 | 84 | 150 | 3.0 | 9.0 | 0.00 | 0.00 | 0.00 | 50 | 1013.7 |
| 20260906015537 | 85 | 138 | 4.0 | 11.0 | 0.00 | 0.00 | 0.00 | 49 | 1013.3 |
| 20260906014517 | 85 | 143 | 3.0 | 13.0 | 0.00 | 0.00 | 0.00 | 49 | 1013.2 |
| 20260906013517 | 85 | 80 | 4.0 | 11.0 | 0.00 | 0.00 | 0.00 | 48 | 1013.1 |
| 20260906012517 | 86 | 172 | 7.0 | 17.0 | 0.00 | 0.00 | 0.00 | 49 | 1013.3 |
| 20260906011515 | 87 | 172 | 3.0 | 11.0 | 0.00 | 0.00 | 0.00 | 51 | 1013.3 |
| 20260906010514 | 87 | 143 | 3.0 | 11.0 | 0.00 | 0.00 | 0.00 | 51 | 1013.2 |
| 20260906005514 | 88 | 171 | 4.0 | 10.0 | 0.00 | 0.00 | 0.00 | 52 | 1013.8 |
| 20260906004517 | 88 | 156 | 6.0 | 15.0 | 0.00 | 0.00 | 0.00 | 52 | 1013.7 |
| 20260906003516 | 89 | 146 | 6.0 | 13.0 | 0.00 | 0.00 | 0.00 | 51 | 1013.6 |
| 20260906002537 | 89 | 147 | 5.0 | 13.0 | 0.00 | 0.00 | 0.00 | 50 | 1013.8 |
| 20260906001516 | 89 | 135 | 6.0 | 14.0 | 0.00 | 0.00 | 0.00 | 51 | 1013.6 |
| 20260906000516 | 89 | 135 | 6.0 | 15.0 | 0.00 | 0.00 | 0.00 | 51 | 1013.4 |
| 20260905235516 | 89 | 137 | 5.0 | 11.0 | 0.00 | 0.00 | 0.00 | 50 | 1013.3 |
| 20260905234516 | 89 | 135 | 7.0 | 17.0 | 0.00 | 0.00 | 0.00 | 49 | 1013.3 |
| 20260905233517 | 89 | 138 | 7.0 | 16.0 | 0.00 | 0.00 | 0.00 | 49 | 1013.1 |
| 20260905232516 | 89 | 139 | 8.0 | 19.0 | 0.00 | 0.00 | 0.00 | 50 | 1012.9 |
| 20260905231516 | 89 | 124 | 7.0 | 17.0 | 0.00 | 0.00 | 0.00 | 51 | 1013.0 |
| 20260905230516 | 89 | 126 | 8.0 | 18.0 | 0.00 | 0.00 | 0.00 | 51 | 1013.1 |
| 20260905225516 | 89 | 134 | 10.0 | 19.0 | 0.00 | 0.00 | 0.00 | 51 | 1013.1 |
| 20260905224536 | 89 | 135 | 9.0 | 19.0 | 0.00 | 0.00 | 0.00 | 49 | 1013.0 |
| 20260905223516 | 91 | 129 | 9.0 | 20.0 | 0.00 | 0.00 | 0.00 | 48 | 1013.1 |
| 20260905222516 | 91 | 133 | 11.0 | 26.0 | 0.00 | 0.00 | 0.00 | 46 | 1013.1 |
| 20260905221557 | 93 | 118 | 10.0 | 18.0 | 0.00 | 0.00 | 0.00 | 45 | 1013.2 |
| 20260905220516 | 93 | 125 | 10.0 | 23.0 | 0.00 | 0.00 | 0.00 | 46 | 1013.5 |
| 20260905215516 | 93 | 127 | 11.0 | 21.0 | 0.00 | 0.00 | 0.00 | 46 | 1013.4 |
| 20260905214516 | 93 | 119 | 11.0 | 20.0 | 0.00 | 0.00 | 0.00 | 47 | 1013.1 |
| 20260905213516 | 92 | 110 | 11.0 | 23.0 | 0.00 | 0.00 | 0.00 | 48 | 1013.1 |
| 20260905212516 | 93 | 108 | 9.0 | 19.0 | 0.00 | 0.00 | 0.00 | 49 | 1013.5 |
| 20260905211516 | 93 | 97 | 9.0 | 19.0 | 0.00 | 0.00 | 0.00 | 47 | 1013.6 |
| 20260905210516 | 93 | 98 | 10.0 | 20.0 | 0.00 | 0.00 | 0.00 | 47 | 1013.6 |
| 20260905205516 | 94 | 99 | 8.0 | 17.0 | 0.00 | 0.00 | 0.00 | 45 | 1013.7 |
| 20260905204516 | 95 | 101 | 10.0 | 21.0 | 0.00 | 0.00 | 0.00 | 43 | 1014.1 |